Home > Weather > Riverview > Past weeks

Flag for Canada Weather for the Past 2 Weeks in Riverview, New Brunswick, Canada

Now
0 °F

Passing clouds.


Feels Like: 0 °F
Forecast: -4 / 14 °F
Wind: 2 mph from East

Location: Moncton

Current Time: Feb 13, 2016 at 5:19:00 AM

Latest Report: Feb 13, 2016 at 5:00 AM


Visibility: 15 mi

Pressure: 29.97 "Hg

Humidity: 71%

Dew point: -8 °F

Location of RiverviewLocation

Historic Weather in Riverview — Graph

°F

Riverview Temperature Yesterday

Maximum temperature yesterday: 18 °F (at 12:00 AM)
Minimum temperature yesterday: 3 °F (at 8:00 AM)
Average temperature yesterday: 9 °F

High & Low Weather Summary for the Past Weeks

 TemperatureHumidityPressure
High52 °F (Feb 1, 2:00 PM)100% (Jan 31, 8:00 AM)30.53 "Hg (Jan 31, 8:00 AM)
Low0 °F (Feb 13, 3:00 AM)39% (Feb 7, 5:00 PM)29.26 "Hg (Jan 29, 6:00 PM)
Average25 °F81%29.86 "Hg
* Reported Jan 29 4:00 AM — Feb 13 4:00 AM, Riverview, Weather by CustomWeather, © 2016

Note: Actual official high and low records may vary slightly from our data, if they occured in-between our weather recording intervals... More about our weather records

Advertising

Riverview Weather History for the Previous 24 Hours

 ConditionsComfort  
Time TempWeatherWind HumidityBarometerVisibility
4:00 AM
Sat, Feb 13
0 °FOvercast.No wind78%29.99 "Hg15 mi
3:00 AM0 °FOvercast.No wind71%30.00 "Hg15 mi
2:00 AM1 °FOvercast.2 mph78%30.00 "Hg15 mi
1:00 AM1 °FOvercast.6 mph71%30.00 "Hg15 mi
12:00 AM3 °FOvercast.6 mph66%30.00 "Hg15 mi
11:00 PM
Fri, Feb 12
3 °FOvercast.5 mph66%30.02 "Hg15 mi
10:00 PM5 °FOvercast.6 mph66%30.03 "Hg15 mi
9:00 PM3 °FPassing clouds.6 mph66%30.02 "Hg15 mi
8:00 PM5 °FPassing clouds.12 mph60%30.01 "Hg15 mi
7:00 PM7 °FPassing clouds.10 mph61%30.00 "Hg15 mi
6:00 PM9 °FLow level haze.17 mph56%29.97 "Hg15 mi
5:00 PM10 °FLow level haze.16 mph56%29.94 "Hg15 mi
4:00 PM12 °FLow level haze.20 mph52%29.91 "Hg15 mi
3:00 PM12 °FLow level haze.17 mph52%29.89 "Hg15 mi
2:00 PM10 °FLow level haze.16 mph56%29.89 "Hg15 mi
1:00 PM10 °FLow level haze.15 mph52%29.88 "Hg15 mi
12:00 PM7 °FPassing clouds.18 mph61%29.89 "Hg15 mi
11:00 AM5 °FLow level haze.20 mph60%29.88 "Hg15 mi
10:00 AM5 °FLow level haze.21 mph60%29.88 "Hg15 mi
9:00 AM3 °FPassing clouds.22 mph72%29.85 "Hg15 mi
8:00 AM3 °FPassing clouds.13 mph72%29.83 "Hg15 mi
7:00 AM5 °FPassing clouds.17 mph78%29.79 "Hg15 mi
6:00 AM7 °FClear.15 mph78%29.76 "Hg15 mi
5:00 AM9 °FPassing clouds.13 mph85%29.72 "Hg15 mi
Weather by CustomWeather, © 2016

See weather overviewHow to use our weather pages